Weather Roundup
Issued by NWS

Home | Current Version | Previous Version | Text Only | Print | Product List | Glossary On
Versions: 1 2 3 4 5 6 7 8 9 10 11 12 13 14 15 16 17 18 19 20 21 22 23 24 25 26 27 28 29 30 31 32 33 34 35 36 37 38 39 40 41 42 43 44 45 46 47 48 49 50
126
NZUS93 KARX 010110
HRRWXR

CURRENT HOURLY OBSERVATIONS ACROSS
MUCH OF THE UPPER MISSISSIPPI VALLEY
NATIONAL WEATHER SERVICE LA CROSSE WI
800 PM CDT SAT APR 30 2016


...SOUTHEAST MINNESOTA...


CITY           SKY/WX    TMP DP  RH WIND       PRES   REMARKS
ROCHESTER      LGT RAIN  43  40  89 NE17      30.02S
ROCHESTER/MAYO CLOUDY    44  40  87 NE13G20   30.03S
WINONA         DRIZZLE   46  41  81 E7G20     30.05S
AUSTIN         CLOUDY    43  37  81 NE17      30.00R
ALBERT LEA     CLOUDY    43  43 100 NE20G25   30.00S
DODGE CENTER   LGT RAIN  41  41 100 E21       30.02S
PRESTON        CLOUDY    41  38  89 NE12G18   30.00S
OWATONNA       RAIN      45  39  81 E8        30.04R
FARIBAULT      CLOUDY    45  43  93 E8        30.05R
$$

...ELSEWHERE IN MINNESOTA...


CITY           SKY/WX    TMP DP  RH WIND       PRES   REMARKS
MINNEAPOLIS    CLOUDY    54  33  45 NE13      30.06R
INTNL FALLS    CLEAR     54  25  32 E7        30.24R
DULUTH         CLOUDY    41  26  55 E16       30.23R
RED WING       CLOUDY    52  36  54 SE17      30.04R
REDWOOD FALLS  CLOUDY    49  40  71 SE5       30.05R
MANKATO        CLOUDY    46  39  76 E14       30.04S
WORTHINGTON    LGT RAIN  43  40  89 NE21      30.01R
FAIRMONT       CLOUDY    45  34  65 NE15G24   30.01R
$$

...SOUTHWEST WISCONSIN...


CITY           SKY/WX    TMP DP  RH WIND       PRES   REMARKS
LA CROSSE      LGT RAIN  46  38  73 E10G21    30.03F
PRAIRIE DU CHI LGT RAIN  44  40  86 NE7       30.00R
BOSCOBEL       LGT RAIN  46  45  96 E9        30.00S FOG
LONE ROCK      CLOUDY    45  40  82 E12       30.00S
PLATTEVILLE    CLOUDY    44  42  91 NE17G24   29.96S
FORT MC COY    LGT RAIN  44  37  77 E13       30.05S
CAMP DOUGLAS   LGT RAIN  43  43 100 NE10      30.05S
MAUSTON-NEW LI NOT AVBL
VIROQUA        CLOUDY    43  41  95 NE17      30.00S
WIS DELLS      DRIZZLE   43  41  92 NE10      30.02S
$$

...ELSEWHERE IN WISCONSIN...


CITY           SKY/WX    TMP DP  RH WIND       PRES   REMARKS
MILWAUKEE      LGT RAIN  42  39  89 NE15      30.00F
MADISON        LGT RAIN  43  40  89 NE22G31   29.99F
GREEN BAY      CLOUDY    49  32  52 NE18      30.09R
EAU CLAIRE     CLOUDY    54  34  46 E6        30.05R
BLACK RVR FLS  LGT RAIN  44  39  82 E9        30.07S
MEDFORD        CLOUDY    50  35  55 E5        30.07S
WAUSAU         CLOUDY    53  33  46 E9        30.06F
WIS RAPIDS     LGT RAIN  48  32  53 E17G25    30.07F
MARSHFIELD     CLOUDY    50  31  48 E9        30.05F
RICE LAKE      CLOUDY    48  31  51 N20G25    30.10R
$$

...NORTHEAST IOWA...


CITY           SKY/WX    TMP DP  RH WIND       PRES   REMARKS
WATERLOO       CLOUDY    45  41  86 NE21G29   29.93S
DUBUQUE        CLOUDY    43  41  93 NE18G26   29.93S FOG
DECORAH        CLOUDY    45  43  93 E15G23    29.98R
MASON CITY     CLOUDY    44  41  89 NE18G25   29.99R
CHARLES CITY   CLOUDY    45  43  93 E25G35    29.96S
OELWEIN        CLOUDY    45  45 100 E22       29.93S FOG
$$

...ELSEWHERE IN IOWA...


CITY           SKY/WX    TMP DP  RH WIND       PRES   REMARKS
DES MOINES     DRIZZLE   49  45  86 E15       29.85R FOG
IOWA CITY      CLOUDY    46  44  93 NE12G26   29.89R FOG
FORT DODGE     CLOUDY    45  39  81 E20       29.92R
MARSHALLTOWN   CLOUDY    46  43  89 E18G28    29.88S
CEDAR RAPIDS   CLOUDY    46  45  96 E18G29    29.88R
$$

...NORTHERN ILLINOIS...


CITY           SKY/WX    TMP DP  RH WIND       PRES   REMARKS
CHICAGO-OHARE  LGT RAIN  45  43  93 NE15      29.92S FOG
CHICAGO-MIDWAY LGT RAIN  47  43  86 NE16      29.91S FOG
MOLINE         CLOUDY    47  44  90 E16       29.88R FOG
ROCKFORD       LGT RAIN  45  42  89 NE20G26   29.96R FOG
PEORIA         CLOUDY    52  50  93 NE13      29.83R
$$

NOTE: "FAIR" INDICATES FEW OR NO CLOUDS BELOW 12,000 FEET WITH NO
SIGNIFICANT WEATHER AND/OR OBSTRUCTIONS TO VISIBILITY. WIND
SPEEDS ARE IN MILES-PER-HOUR.




USA.gov is the U.S. government's official web portal to all federal, state and local government web resources and services.